IRIDIUM 132

Last updated on Fri Sep 11 2026 00:03:06 GMT+0000 (Coordinated Universal Time)

1 42961U 17061G 26253.54873444 .00000124 00000+0 37055-4 0 9994 2 42961 86.4028 349.5792 0002219 94.9989 265.1460 14.34217705467053
UTC large
Height (km)
Speed (km/s)
/
Latitude / Longitude
Inclination (degrees)
Orbital Period (minutes)
Azimuth
Elevation
Range (km)
Doppler Factor

Next 0 passes for location: London (51.5072 / 0.1276)

No passes found over London.
IRIDIUM 132